Temperature
22 22 21 21 21 22 22 22 22 22 23 23 22 21 21 21 21 21 21 22 22 21 21 21 20 20 20 19 19 18 18 18 18 17 17 17 17 17 16 16 16 16 16 16
22 21 23 23 23 22 22 22 22 22 23 23 22 21 21 21 21 22 22 22 22 22 21 20 20 20 19 19 19 18 18 18 18 17 17 17 17 17 16 16 16 16 16 16
22 22 24 23 23 22 22 22 22 22 22 23 22 21 21 21 22 22 22 22 22 22 21 20 20 19 19 19 19 18 18 18 18 17 17 17 17 17 16 16 16 16 16 16
23 24 23 23 23 23 22 23 23 22 22 21 22 20 21 21 21 22 22 22 22 22 21 20 20 19 19 19 19 19 18 18 18 17 17 17 17 17 16 16 16 16 16 16
23 23 23 23 23 23 23 24 23 23 22 21 22 21 21 22 21 22 22 22 22 22 21 20 20 19 19 19 19 18 18 18 18 17 17 17 17 17 16 16 16 16 16 16
24 24 24 24 24 24 24 23 23 23 22 21 22 22 21 22 22 22 22 22 22 21 21 21 20 19 19 18 18 18 18 18 18 17 17 17 17 17 16 16 16 16 16 16
23 24 24 24 23 24 23 21 20 20 20 21 23 22 22 24 24 23 23 22 22 21 21 21 20 19 19 18 18 18 18 18 17 17 17 17 17 17 17 16 16 16 16 16
22 22 24 24 24 23 22 21 20 20 20 22 23 23 23 25 25 24 23 22 22 22 21 21 20 19 19 18 18 18 18 17 17 17 17 17 17 17 17 17 17 16 16 16
22 22 24 25 25 24 22 22 22 21 22 22 23 23 24 24 24 24 23 22 22 22 21 21 20 19 19 18 18 18 18 17 17 17 17 17 17 17 17 17 17 16 16 16
23 22 23 24 24 24 24 23 22 21 21 21 22 23 22 23 23 23 23 22 22 21 21 20 20 19 19 18 18 18 18 18 17 17 17 17 17 17 17 16 16 16 16 16
24 22 22 23 23 23 24 23 23 22 22 20 20 22 24 24 24 23 23 23 22 21 21 20 20 19 19 18 18 18 17 17 17 17 17 17 17 17 16 16 16 16 16 16
24 23 22 23 25 25 24 24 23 22 22 22 21 22 25 25 24 24 23 23 22 21 21 20 19 19 18 18 18 18 17 17 17 17 17 17 16 16 16 16 16 16 15 15
24 22 21 21 22 24 24 24 24 23 23 22 22 22 24 25 24 24 23 22 22 21 21 20 19 19 18 18 18 18 17 17 17 17 17 17 16 16 16 16 16 15 15 15
23 23 21 20 21 23 23 24 24 23 22 22 23 23 24 24 24 23 23 22 21 21 20 20 19 19 18 18 18 17 17 17 17 17 17 16 16 16 16 16 16 15 15 15
24 22 22 23 23 24 24 24 24 24 23 23 23 23 24 24 24 24 23 22 21 21 20 19 19 18 18 18 17 17 17 17 17 17 17 16 16 16 16 16 15 15 15 15
24 23 23 23 24 24 24 24 24 24 24 24 24 24 25 25 24 23 23 22 21 21 20 19 19 18 18 18 17 17 17 17 17 17 16 16 16 16 16 16 15 15 15 15
23 23 22 22 23 24 23 24 25 24 25 24 23 24 25 24 24 23 23 22 21 21 20 19 19 18 18 18 18 17 17 17 17 16 16 16 16 16 16 15 15 15 14 14
23 23 22 22 22 21 23 25 26 25 25 25 25 24 24 24 23 23 23 22 21 21 20 20 19 19 18 18 18 17 17 17 17 16 16 16 16 16 15 15 15 14 14 14
24 23 22 22 21 22 24 25 25 24 24 25 25 24 24 24 23 23 22 22 21 21 20 20 19 19 18 18 18 17 17 16 16 16 16 16 16 15 15 15 15 14 14 14
24 23 22 21 21 21 23 24 25 24 23 25 25 24 24 23 22 22 22 22 21 20 20 19 19 19 18 18 18 17 17 16 16 16 16 16 16 15 15 15 14 14 14 13
22 22 21 21 21 21 23 24 24 23 22 24 24 24 23 23 22 22 21 21 21 20 20 19 19 18 18 18 17 17 17 16 16 16 16 16 15 15 15 15 14 14 13 13
22 21 21 21 21 21 22 23 22 22 23 23 23 23 22 22 22 21 21 20 20 20 19 19 19 18 18 18 17 17 16 16 16 16 16 15 15 15 15 14 14 13 13 13
22 22 21 21 21 21 22 22 21 21 22 22 22 22 22 22 21 21 20 20 20 19 19 18 18 18 17 17 17 17 16 16 16 15 15 15 14 14 14 14 14 13 13 13
23 23 22 22 21 21 21 21 21 21 21 21 21 21 21 21 20 20 19 19 19 19 18 18 18 17 17 17 16 16 16 16 15 15 15 14 14 14 13 13 13 13 13 12
21 22 22 21 21 21 21 20 20 20 20 20 20 20 20 20 20 20 19 19 18 18 17 17 17 17 16 16 16 16 16 15 15 14 14 14 14 13 13 13 13 13 13 12
21 21 20 20 20 21 20 19 19 19 19 19 19 19 19 19 19 19 18 18 17 17 17 17 17 16 16 16 16 15 15 15 14 14 14 13 13 13 13 12 12 12 12 12
Wind_Speed
6 6 6 6 8 8 3 2 2 3 5 5 6 7 7 8 7 8 9 10 10 10 9 8 8 8 8 7 8 7 6 5 4 3 3 3 2 2 3 3 5 6 7 8
4 6 6 5 5 4 4 4 4 4 5 5 6 7 8 9 10 8 8 8 10 11 10 9 8 7 8 7 7 7 6 5 5 3 3 3 3 2 3 2 4 6 7 7
6 4 4 5 4 5 5 6 5 5 4 4 4 5 8 9 9 8 7 8 8 11 12 11 10 9 8 8 7 7 7 7 6 4 3 3 2 1 2 3 3 4 6 6
5 5 4 5 6 5 4 5 5 6 6 4 7 4 7 10 11 11 9 9 9 9 11 11 10 10 9 8 8 8 7 7 6 6 4 3 3 2 2 2 1 2 5 5
4 5 6 6 6 5 5 4 6 7 6 5 7 5 6 11 11 12 11 10 10 10 11 11 11 9 9 7 6 7 7 6 6 6 4 2 3 3 2 3 2 3 3 3
6 5 5 5 5 4 3 3 5 6 5 6 9 7 5 9 12 13 13 12 11 10 11 11 11 9 9 8 6 6 7 6 5 5 5 5 4 3 3 3 2 2 2 2
7 8 7 6 6 6 5 3 3 4 5 5 7 6 5 9 12 13 13 12 13 12 12 12 12 10 10 10 8 7 7 6 5 5 5 5 4 4 4 3 1 2 2 2
6 7 9 8 8 7 8 7 4 3 3 3 6 5 4 8 10 12 13 11 11 12 12 11 11 11 10 10 9 8 8 7 5 4 4 5 4 2 2 2 2 2 2 2
3 4 7 7 7 6 6 8 8 6 6 4 4 4 5 7 9 11 12 12 10 11 11 11 11 11 11 11 9 9 9 8 6 4 4 4 3 3 2 2 3 2 3 2
3 2 5 6 6 9 8 6 4 3 3 2 3 6 6 9 11 13 13 12 11 11 12 11 11 11 11 10 9 9 8 8 6 5 4 4 3 3 3 3 4 3 4 3
5 4 5 7 8 9 9 8 6 4 3 1 1 0 3 9 10 11 12 12 11 12 12 11 10 10 10 10 9 8 8 7 6 5 5 5 4 3 4 3 3 3 3 3
5 3 6 9 8 7 7 8 7 4 4 3 2 1 3 6 8 10 11 11 11 11 11 12 11 10 10 10 9 9 8 8 6 5 5 5 4 4 4 4 3 3 4 3
2 3 4 3 4 7 8 9 8 6 5 5 3 2 4 6 9 9 10 10 10 11 11 12 11 11 10 10 9 9 8 8 7 5 5 5 4 4 4 4 4 3 4 4
3 6 5 4 4 5 7 9 9 8 5 5 4 3 4 5 7 8 9 10 10 11 11 11 10 10 10 10 9 8 8 8 8 6 6 5 5 5 5 5 4 4 4 4
5 7 8 8 7 8 8 8 9 10 9 7 4 2 4 5 5 8 10 11 11 11 12 12 11 10 10 10 10 9 8 8 8 7 6 6 6 6 6 5 4 4 4 5
8 8 9 9 9 9 10 10 10 10 9 8 7 4 4 4 5 6 10 11 11 11 13 13 12 12 11 11 11 10 9 8 8 8 6 6 7 6 6 5 4 5 4 4
8 9 8 8 8 8 9 9 9 8 8 7 7 4 3 5 5 6 9 11 11 11 11 12 12 12 11 11 11 11 10 9 9 8 8 7 7 7 6 5 5 5 4 4
9 9 5 6 7 7 4 3 3 5 5 5 3 3 4 4 4 4 6 9 11 11 11 11 10 11 10 10 10 10 10 9 9 9 8 8 7 7 6 6 5 4 4 4
9 7 5 5 6 6 5 3 3 3 3 2 2 3 4 5 4 4 6 7 9 11 10 9 9 10 11 11 11 11 10 9 9 9 9 8 8 7 7 6 5 4 4 4
7 7 6 5 5 4 1 2 2 2 2 1 2 3 3 5 4 3 5 7 8 9 8 9 9 9 10 11 11 11 10 10 9 9 9 8 8 8 7 6 5 4 4 4
7 7 9 8 7 4 2 2 1 1 2 3 3 3 3 3 2 4 6 8 8 8 8 8 9 9 9 11 11 11 10 9 9 8 8 8 8 7 7 6 4 5 4 4
5 5 7 7 7 2 3 2 3 4 5 5 5 3 2 2 3 6 7 8 8 8 8 8 8 8 8 10 11 10 9 8 9 9 8 8 8 7 7 6 5 4 4 4
4 2 1 1 1 3 3 5 6 6 6 6 5 4 3 2 4 6 7 7 8 8 8 7 8 8 7 8 9 10 9 9 9 9 8 8 7 6 6 6 5 4 4 3
2 0 1 1 2 3 3 5 6 6 6 6 5 4 3 3 4 6 7 7 7 7 8 7 8 8 8 7 7 8 9 9 9 9 8 7 7 7 6 5 4 4 4 3
2 2 3 3 1 2 4 5 5 4 4 5 4 4 3 3 3 4 6 7 7 7 7 7 8 8 7 8 8 8 9 9 9 8 7 7 6 6 6 4 3 4 3 4
4 3 3 2 3 2 2 4 5 5 4 4 4 4 4 4 3 4 5 6 6 6 7 7 8 8 8 8 8 8 8 9 9 7 7 6 5 5 5 5 3 2 4 5
Wind_Direction
201 216 225 221 227 239 236 208 183 191 171 170 177 173 165 179 197 185 180 177 169 159 151 142 143 142 135 131 129 130 134 129 119 110 105 99 91 72 61 67 51 40 37 33
200 228 230 216 213 240 232 192 192 186 178 186 182 187 181 191 204 198 187 182 169 159 154 149 150 146 142 136 134 134 133 129 114 103 104 104 95 94 78 53 49 42 44 31
209 213 208 208 209 226 216 218 206 190 176 197 191 205 203 206 204 196 195 190 176 164 160 158 158 153 147 147 148 144 143 133 126 119 97 96 85 80 83 71 48 39 47 41
217 222 212 219 220 225 228 211 207 206 201 216 212 219 212 198 193 195 197 188 176 166 160 157 156 156 154 153 152 147 145 136 137 135 128 133 124 103 96 98 91 64 58 50
213 206 212 220 222 225 225 198 209 223 231 243 232 231 208 193 193 190 189 188 173 169 164 162 159 157 153 147 144 143 139 135 134 128 132 126 103 103 97 100 95 86 71 64
232 219 225 225 215 218 203 214 234 239 246 246 230 222 207 195 192 184 182 182 174 171 166 163 158 151 145 141 140 136 134 127 130 140 143 119 108 106 101 98 98 102 96 71
225 216 207 213 206 203 203 207 234 218 218 235 219 214 208 186 184 178 176 177 173 170 168 163 157 152 148 149 151 148 139 139 150 154 143 136 137 137 125 127 120 110 108 80
221 215 199 209 220 210 208 212 225 248 231 233 198 203 171 169 171 165 164 169 170 167 166 161 157 153 154 154 158 155 151 149 156 157 144 139 143 131 119 130 124 95 102 101
242 219 192 206 229 231 219 225 234 264 278 255 193 158 134 149 154 156 159 161 170 166 159 158 157 155 156 158 160 157 151 152 161 154 142 132 122 108 110 102 90 81 81 89
256 240 199 194 221 232 234 247 251 252 285 266 213 191 174 173 169 166 166 168 169 162 160 159 159 159 159 158 159 156 154 154 157 159 154 131 117 112 91 74 73 72 79 70
250 239 204 196 217 226 215 230 237 241 241 271 278 265 136 169 169 169 169 168 169 164 161 160 159 158 154 151 153 155 156 154 157 158 137 131 127 121 108 88 88 83 81 94
229 251 239 221 224 235 238 245 245 258 273 240 248 236 129 151 159 167 169 168 167 160 157 157 156 157 156 157 160 162 163 157 155 149 139 133 131 133 121 111 105 104 90 74
270 249 261 245 224 219 229 238 248 256 276 278 267 181 156 163 159 163 163 165 162 157 155 156 157 161 161 161 161 162 157 151 146 142 141 141 142 123 110 104 94 89 92 85
279 262 251 240 265 258 233 233 236 244 251 268 259 195 176 177 165 158 156 159 160 161 156 155 158 160 158 159 159 159 154 150 147 147 151 145 136 126 114 101 93 81 81 83
239 261 268 264 253 259 255 246 238 242 250 260 273 230 217 184 181 164 156 154 160 162 160 161 164 163 159 159 159 157 153 153 151 152 151 148 136 123 115 112 106 92 76 79
237 264 272 270 261 255 254 243 239 240 251 258 267 252 218 177 168 170 162 160 160 164 164 165 168 162 163 164 161 157 158 158 151 148 144 128 122 116 116 118 110 99 84 77
236 250 272 280 280 271 258 247 235 232 241 248 251 236 170 160 167 176 169 164 164 164 162 166 169 166 168 168 164 161 161 153 148 147 140 133 130 128 131 129 114 113 106 90
245 254 260 269 268 255 252 268 247 231 233 238 223 162 157 160 161 163 163 163 165 163 163 166 166 161 162 160 156 154 150 150 150 147 141 141 137 137 135 128 128 129 120 113
242 246 258 261 266 262 255 246 222 226 231 237 184 152 157 163 148 151 161 164 163 161 161 161 163 160 160 156 156 154 152 152 150 148 148 148 146 142 141 140 140 134 126 124
230 237 244 256 264 270 320 11 355 256 236 13 109 138 147 143 153 166 153 146 145 145 150 155 158 160 158 154 153 154 155 154 156 155 153 151 148 147 148 148 143 137 134 140
203 223 233 250 257 267 336 327 306 272 34 27 51 108 139 157 144 132 134 135 136 139 143 145 150 153 155 152 151 155 155 160 156 148 145 144 145 147 145 142 143 142 140 141
226 221 227 236 243 242 30 28 47 23 28 33 35 45 103 126 115 120 129 137 135 131 136 141 142 142 146 149 152 153 157 153 144 143 144 146 147 151 149 142 146 148 148 154
230 237 271 283 83 61 61 58 45 17 10 22 23 25 50 102 115 126 134 135 136 138 139 140 141 141 145 149 153 154 149 141 141 143 146 148 149 147 147 148 151 148 146 153
258 93 248 252 144 118 73 54 40 24 14 16 14 28 51 99 113 130 138 142 140 139 143 141 141 146 150 149 144 142 139 141 144 150 154 156 155 150 146 147 153 152 158 164
318 302 271 264 261 88 58 42 30 25 21 18 21 34 51 83 104 128 138 140 142 142 144 148 152 152 151 145 142 143 146 150 155 158 159 158 155 152 148 143 149 159 167 173
295 286 266 284 326 331 50 39 19 20 19 15 22 35 63 80 103 120 127 128 134 143 149 151 147 150 153 151 150 150 152 156 159 161 161 158 155 152 150 150 140 116 160 154
Height
1494 1497 1498 1496 1496 1495 1495 1499 1502 1500 1496 1500 1504 1507 1508 1510 1512 1513 1515 1517 1519 1523 1527 1529 1532 1535 1537 1540 1542 1544 1545 1547 1548 1549 1550 1551 1552 1553 1553 1553 1552 1552 1552 1551
1495 1497 1492 1491 1491 1493 1495 1499 1502 1499 1496 1499 1503 1506 1506 1508 1510 1511 1513 1515 1517 1521 1525 1528 1531 1534 1537 1539 1541 1543 1545 1547 1548 1550 1551 1552 1553 1553 1553 1553 1553 1553 1552 1552
1494 1492 1489 1490 1493 1495 1495 1498 1499 1501 1499 1499 1504 1510 1508 1506 1508 1509 1511 1514 1516 1519 1523 1526 1530 1533 1536 1539 1541 1543 1545 1547 1548 1550 1551 1552 1553 1554 1554 1554 1554 1554 1553 1553
1490 1488 1488 1491 1492 1493 1499 1492 1494 1498 1503 1508 1505 1517 1508 1503 1504 1506 1509 1511 1514 1517 1521 1525 1528 1532 1535 1538 1540 1543 1545 1547 1548 1550 1551 1552 1553 1554 1555 1555 1555 1555 1554 1554
1489 1487 1489 1491 1491 1490 1493 1490 1493 1495 1500 1505 1502 1510 1507 1499 1503 1503 1505 1508 1511 1515 1519 1523 1527 1530 1534 1537 1540 1542 1544 1546 1548 1549 1551 1553 1554 1555 1555 1555 1555 1555 1555 1554
1485 1485 1486 1487 1487 1488 1490 1493 1495 1495 1500 1512 1501 1505 1506 1495 1495 1497 1501 1504 1508 1513 1517 1521 1525 1529 1533 1536 1539 1541 1543 1545 1548 1550 1551 1553 1554 1555 1555 1556 1556 1556 1556 1555
1488 1484 1484 1485 1488 1489 1492 1504 1515 1515 1515 1509 1491 1496 1496 1485 1485 1490 1496 1501 1506 1510 1515 1519 1523 1527 1531 1534 1537 1540 1543 1545 1547 1549 1551 1553 1554 1555 1556 1556 1556 1557 1557 1556
1494 1493 1483 1482 1485 1489 1492 1500 1515 1520 1513 1500 1488 1493 1485 1478 1482 1487 1493 1498 1503 1508 1512 1517 1521 1525 1529 1532 1536 1539 1541 1544 1547 1549 1551 1553 1554 1555 1556 1556 1557 1557 1557 1557
1490 1490 1479 1479 1481 1483 1491 1494 1493 1502 1499 1501 1492 1485 1481 1478 1481 1486 1492 1497 1501 1506 1510 1515 1519 1524 1527 1531 1534 1538 1540 1543 1546 1549 1551 1552 1554 1555 1556 1556 1557 1557 1558 1558
1481 1490 1481 1479 1481 1481 1483 1486 1491 1499 1507 1509 1497 1489 1489 1484 1483 1485 1490 1495 1499 1504 1509 1513 1518 1522 1526 1529 1533 1537 1540 1542 1545 1548 1550 1552 1553 1554 1555 1556 1556 1557 1557 1558
1477 1487 1486 1482 1483 1483 1483 1485 1486 1490 1493 1507 1510 1497 1473 1476 1478 1482 1487 1492 1497 1502 1506 1511 1516 1520 1524 1528 1532 1535 1538 1542 1544 1547 1549 1550 1552 1553 1554 1555 1556 1557 1557 1557
1475 1482 1487 1481 1474 1473 1476 1479 1482 1495 1493 1490 1498 1496 1470 1472 1476 1480 1485 1491 1495 1500 1505 1509 1514 1518 1523 1526 1530 1533 1537 1540 1543 1545 1547 1549 1551 1552 1553 1554 1555 1556 1557 1557
1475 1482 1493 1492 1485 1477 1476 1475 1476 1480 1485 1488 1495 1494 1472 1472 1475 1479 1484 1488 1493 1498 1503 1507 1512 1516 1520 1524 1528 1532 1535 1538 1541 1544 1546 1548 1550 1552 1553 1554 1555 1556 1556 1557
1476 1480 1488 1498 1490 1478 1477 1475 1474 1479 1488 1488 1485 1483 1475 1473 1475 1478 1482 1486 1491 1495 1500 1505 1510 1514 1518 1522 1526 1530 1533 1536 1539 1542 1544 1547 1549 1550 1551 1552 1554 1555 1556 1557
1475 1479 1478 1477 1473 1472 1472 1472 1472 1475 1476 1482 1478 1477 1475 1472 1474 1477 1480 1485 1490 1494 1498 1503 1508 1512 1516 1520 1524 1528 1531 1534 1537 1540 1543 1545 1547 1549 1550 1551 1553 1554 1555 1556
1472 1475 1474 1474 1468 1468 1469 1467 1468 1470 1470 1472 1472 1473 1468 1470 1473 1476 1479 1483 1487 1492 1496 1501 1506 1510 1513 1517 1521 1525 1529 1532 1535 1538 1541 1543 1545 1547 1549 1550 1552 1553 1554 1555
1470 1473 1478 1479 1470 1469 1473 1463 1463 1464 1464 1467 1472 1470 1467 1469 1472 1474 1477 1481 1485 1490 1494 1499 1503 1507 1511 1515 1519 1523 1527 1530 1534 1536 1539 1541 1543 1545 1547 1549 1551 1552 1553 1554
1468 1470 1474 1478 1477 1487 1470 1455 1455 1459 1460 1461 1462 1464 1466 1469 1471 1474 1476 1480 1484 1488 1492 1496 1501 1505 1509 1513 1518 1521 1525 1528 1532 1535 1537 1540 1542 1544 1546 1547 1549 1551 1552 1553
1462 1468 1474 1478 1482 1475 1462 1455 1455 1460 1462 1459 1461 1463 1466 1469 1471 1474 1476 1479 1482 1486 1490 1494 1498 1503 1507 1512 1516 1520 1523 1526 1530 1532 1535 1538 1540 1542 1544 1546 1547 1549 1551 1552
1461 1463 1472 1476 1483 1483 1467 1456 1455 1459 1466 1460 1460 1463 1466 1468 1473 1475 1476 1478 1481 1485 1489 1493 1497 1502 1506 1510 1514 1517 1521 1524 1527 1530 1533 1536 1538 1540 1542 1544 1546 1548 1549 1550
1466 1467 1472 1475 1478 1472 1462 1457 1457 1470 1471 1461 1461 1463 1466 1468 1471 1473 1475 1478 1481 1484 1488 1492 1496 1500 1504 1507 1511 1515 1519 1522 1525 1528 1531 1534 1536 1538 1540 1542 1544 1546 1547 1549
1463 1467 1469 1470 1476 1476 1462 1460 1464 1467 1463 1463 1464 1464 1466 1468 1470 1472 1474 1477 1480 1483 1487 1491 1494 1498 1502 1506 1509 1513 1516 1520 1523 1526 1529 1531 1534 1536 1538 1540 1542 1544 1545 1547
1457 1460 1463 1466 1470 1465 1463 1464 1465 1465 1465 1465 1466 1466 1467 1468 1470 1472 1475 1477 1480 1483 1486 1490 1493 1497 1501 1504 1508 1511 1514 1518 1521 1524 1527 1529 1532 1534 1536 1538 1540 1542 1543 1545
1455 1455 1459 1461 1463 1464 1464 1465 1465 1466 1466 1467 1467 1467 1468 1469 1470 1472 1475 1477 1480 1483 1485 1489 1492 1495 1499 1503 1506 1509 1513 1516 1519 1522 1524 1527 1530 1532 1534 1536 1537 1539 1540 1542
1458 1458 1459 1462 1462 1463 1465 1466 1467 1467 1467 1467 1467 1468 1468 1469 1470 1472 1474 1476 1479 1482 1484 1487 1491 1494 1497 1501 1504 1507 1510 1513 1517 1520 1522 1525 1527 1529 1531 1533 1535 1536 1538 1539
1459 1460 1462 1464 1464 1464 1466 1467 1467 1467 1467 1468 1468 1468 1468 1469 1470 1472 1474 1476 1478 1481 1483 1486 1489 1493 1496 1499 1502 1505 1508 1511 1514 1517 1520 1522 1525 1527 1528 1530 1533 1534 1536 1537